Regional Weather Roundup
Issued by NWS

Home | Current Version | Previous Version | Graphics & Text | Print | Product List | Glossary Off
Versions: 1 2 3 4 5 6 7 8 9 10 11 12 13 14 15 16 17 18 19 20 21 22 23 24 25 26 27 28 29 30 31 32 33 34 35 36 37 38 39 40 41 42 43 44 45 46 47 48 49 50

926
ASUS43 KMKX 141720
RWRWI

WISCONSIN REGIONAL WEATHER ROUNDUP
NATIONAL WEATHER SERVICE MILWAUKEE/SULLIVAN WI
1100 AM CST SUN FEB 14 2016

NOTE: "FAIR" INDICATES FEW OR NO CLOUDS BELOW 12,000 FEET WITH NO
SIGNIFICANT WEATHER AND/OR OBSTRUCTIONS TO VISIBILITY.

WIZ001-002-006>008-014>016-023>028-141800-
NORTHWEST WISCONSIN

CITY           SKY/WX    TMP DP  RH WIND       PRES   REMARKS
SUPERIOR ARPT  CLOUDY    13   0  56 S8        30.08F WCI   1
ASHLAND        CLOUDY     7  -9  48 CALM      30.11F
HAYWARD        CLOUDY    10  -5  50 S8        30.06F WCI  -2
SIREN          CLOUDY    12   3  66 SE10      30.05F WCI  -1
CUMBERLAND     FLURRIES  10   1  67 SE14      30.05S WCI  -5
RICE LAKE      FLURRIES  10   2  69 SE14      30.08F WCI  -6
CHETEK         LGT SNOW  10   1  69 SE9       30.08F WCI  -4
LADYSMITH      CLOUDY    12  -4  48 SE10G16   30.11F WCI  -1
EAU CLAIRE     FLURRIES  11   1  64 SE14      30.09F WCI  -5
MENOMONIE      CLOUDY    15   3  59 SE13      30.09S WCI   1
NEW RICHMOND   FLURRIES  15   4  62 SE13      30.04F WCI   1
OSCEOLA        CLOUDY    14   5  66 SE10G17   30.07F WCI   2
$$

WIZ003>005-009-010-017-018-141800-
NORTH CENTRAL WISCONSIN

CITY           SKY/WX    TMP DP  RH WIND       PRES   REMARKS
MANITOWISH WTR CLOUDY     9 -11  40 S9        30.08F WCI  -4
ARBOR VITAE    CLOUDY    11  -9  40 S10       30.09F WCI  -2
WOODRUFF       CLOUDY    11  -9  40 S10       30.09F WCI  -2
RHINELANDER    CLOUDY    11 -13  33 S17G24    30.12S WCI  -6
EAGLE RIVER    CLOUDY    13 -16  25 S13G21    30.10F WCI  -1
LAND O LAKES   CLOUDY    14 -12  30 S9        30.10F WCI   1
PHILLIPS       CLOUDY    10 -10  41 S15G21    30.09S WCI  -7
TOMAHAWK       CLOUDY    12  -9  38 SE10G17   30.13S WCI  -1
MEDFORD        CLOUDY     9  -5  53 SE16G22   30.10F WCI  -8
MERRILL        CLOUDY    10  -7  45 S9        30.16F WCI  -2
$$

WIZ029-030-035-036-043>047-141800-
CENTRAL WISCONSIN

CITY           SKY/WX    TMP DP  RH WIND       PRES   REMARKS
WAUSAU         CLOUDY    14  -1  51 SE16      30.15F WCI  -2
MOSINEE        SUNNY     14   0  52 SE15G23   30.15F WCI  -1
MARSHFIELD     CLOUDY    12  -5  46 SE16G23   30.11F WCI  -5
STEVENS POINT  CLOUDY    13  -3  48 SE14G20   30.18F WCI  -2
WAUPACA        SUNNY     16  -1  45 S6        30.23F WCI   8
WAUTOMA        CLOUDY    15  -4  42 SE14      30.21F WCI   0
WISC RAPIDS    CLOUDY    14  -6  40 S13G18    30.17F WCI   0
CAMP DOUGLAS   LGT SNOW  12   7  79 SE12      30.15S FOG     WCI  -2
$$

WIZ011>013-019>022-031-037>040-048>050-141800-
NORTHEAST WISCONSIN

CITY           SKY/WX    TMP DP  RH WIND       PRES   REMARKS
ANTIGO         CLOUDY    11   1  65 S15G23    30.15F WCI  -6
SHAWANO        CLOUDY    10  -2  59 CALM      30.25R
OCONTO         CLOUDY    11  -2  55 CALM      30.26S
STURGEON BAY   CLOUDY    12   7  79 E5        30.26F WCI   4
GREEN BAY      CLOUDY    14   4  64 S6        30.25S WCI   5
MANITOWOC      LGT SNOW  19  10  68 CALM      30.26S VSB 3/4
APPLETON       PTSUNNY   16   3  57 SE12      30.21S WCI   3
CLINTONVILLE   CLOUDY    14   1  57 S7        30.24S WCI   4
OSHKOSH        SUNNY     16   5  62 S13       30.22F WCI   2
$$

WIZ032>034-041-042-053>061-141800-
SOUTHWEST WISCONSIN

CITY           SKY/WX    TMP DP  RH WIND       PRES   REMARKS
LA CROSSE      LGT SNOW  14   7  73 SE12      30.12F WCI   0
SPARTA         LGT SNOW  15   8  73 SE13      30.14F WCI   1
VIROQUA        CLOUDY    13   8  81 SE17      30.07F VSB 1/2 WCI  -4
BOSCOBEL       SNOW      16  11  80 E7        30.16S VSB 1/2 WCI   6
PRAIRIE DU CHI LGT SNOW  16  11  81 E12       30.12F VSB 3/4 WCI   3
PLATTEVILLE    CLOUDY    15  12  89 SE14G20   30.12S VSB 3/4 WCI   0
$$

WIZ056-057-062-063-064-067-068-141800-
SOUTH CENTRAL WISCONSIN

CITY           SKY/WX    TMP DP  RH WIND       PRES   REMARKS
REEDSBURG      LGT SNOW  14   6  69 SE6       30.16R WCI   5
BARABOO/DELLS  LGT SNOW  14   5  69 SE15      30.16F WCI  -2
LONE ROCK      LGT SNOW  15   9  76 SE10      30.16F WCI   2
MINERAL POINT  LGT SNOW  18  12  79 SE16G24   30.11F VSB 3/4 WCI   3
MADISON        LGT SNOW  14   6  70 SE16      30.18F WCI  -2
MIDDLETON      CLOUDY    17   8  67 SE15      30.18F VSB 1/2 WCI   2
WATERTOWN      CLOUDY    18   5  56 SE8G16    30.21S WCI   7
MONROE         SNOW      14  10  85 SE14G23   30.15F VSB 1/2 WCI  -1
JANESVILLE     LGT SNOW  18   7  62 SE16      30.21S WCI   3
$$

WIZ051-052-058>065-066-070>072-141800-
SOUTHEAST WISCONSIN

CITY           SKY/WX    TMP DP  RH WIND       PRES   REMARKS
MILWAUKEE      CLOUDY    19  11  70 S18       30.25F WCI   4
WAUKESHA       CLOUDY    16   9  73 SE12G23   30.24F WCI   3
MILWAUKEE/TIMM FLURRIES  18   9  68 S17G25    30.26S WCI   2
RACINE         CLOUDY    19   8  62 SE20G26   30.26F WCI   3
BURLINGTON     CLOUDY    16   5  62 S10       30.23F WCI   4
KENOSHA        CLOUDY    18   7  62 SE20      30.24F WCI   2
FOND DU LAC    CLOUDY    19   9  65 S22       30.22F WCI   2
SHEBOYGAN      LGT SNOW  17  13  84 S6        30.24S FOG     WCI   9
WEST BEND      LGT SNOW  19  12  73 SE6       30.23F WCI  11
JUNEAU         CLOUDY    17   6  63 SE15      30.21F WCI   2
$$

LSZ147-162-141800-
LAKE SUPERIOR

STATION/POSITION TIME  TEMP    WIND        PRES    WAVE
                       AIR SEA DIR/SP/G            HT/PER
                 (UTC) (F)     (DEG/KT/KT) (MB)    (FT/S)
DEVILS ISLAND    1700   11     190/  4/  6 1021.6F
SAXON HARBOR     1600                      1020.3S
$$

LMZ867-665-643>646-141800-
LAKE MICHIGAN

STATION/POSITION TIME  TEMP    WIND        PRES    WAVE
                       AIR SEA DIR/SP/G            HT/PER
                 (UTC) (F)     (DEG/KT/KT) (MB)    (FT/S)
CHAMBERS ISLAND  1600   20      10/  3/  4 1025.4F
SISTER BAY       1604   13     350/  5/  6   N/A
ALGOMA LAKESHORE 1626             CALM       N/A
KEWAUNEE LAKESHO 1700   16     250/  4/  5 1023.3F
SHEBOYGAN LAKESH 1700   22     170/ 30/ 33 1025.5F
PORT WASHINGTON  1700   22     160/ 22     1025.4R
MILWAUKEE LAKESH 1610   20     160/ 23/ 29   N/A
KENOSHA   LAKESH 1700   18     150/ 22/ 25 1024.0F
$$

TC  - TEMPERATURE IN CELSIUS
VSB - VISIBILITY IN STATUTE MILES
WCI - WIND CHILL INDEX
HX  - HEAT INDEX





USA.gov is the U.S. government's official web portal to all federal, state and local government web resources and services.